Regional Weather Roundup
Issued by NWS State College, PA

Home | Current Version | Previous Version | Graphics & Text | Print | Product List | Glossary On
Versions: 1 2 3 4 5 6 7 8 9 10 11 12 13 14 15 16 17 18 19 20 21 22 23 24 25 26 27 28 29 30 31 32 33 34 35 36 37 38 39 40 41 42 43 44 45 46 47 48 49 50
000
ASUS41 KCTP 250510
RWRCTP

REGIONAL WEATHER ROUNDUP
NATIONAL WEATHER SERVICE STATE COLLEGE PA
100 AM EDT TUE APR 25 2017

Note: "fair" indicates few or no clouds below 12,000 feet with no
significant weather and/or obstructions to visibility.

* = STATION THAT DOES NOT REPORT PRECIPITATION /E.G. RAIN...SNOW...ETC/
    THUNDER OR FOG.

PAZ002>004-007>009-013>016-020>023-029>032-250600-
WESTERN PENNSYLVANIA

CITY           SKY/WX    TMP DP  RH WIND       PRES   REMARKS
ERIE           CLOUDY    59  40  49 SE6       29.96F
MEADVILLE      LGT RAIN  54  44  69 CALM      29.97F
FRANKLIN*      CLOUDY    52  39  62 SE17      30.00S
NEW CASTLE     CLOUDY    55  44  66 E10G16    29.96F
BEAVER COUNTY  NOT AVBL
BUTLER*        CLOUDY    54  43  66 E15G21    29.97F
PITTSBURGH INT CLOUDY    55  44  66 E15G22    29.95F
PITTSBURGH     CLOUDY    53  40  61 E10       29.95F
INDIANA*       CLOUDY    54  37  54 VRB6G14   30.01S
LATROBE        CLOUDY    54  41  62 NE7       29.98S
WASHINGTON CO* CLOUDY    52  43  71 E10G17    29.96S
$$

PAZ004>006-010>012-017>019-024>028-033>037-041-042-045-046-049>053-250600-
CENTRAL PENNSYLVANIA

CITY           SKY/WX    TMP DP  RH WIND       PRES   REMARKS
BRADFORD       LGT RAIN  51  43  74 SE10      30.03F
DUBOIS         CLOUDY    50  40  68 E12       30.00F
CLEARFIELD     LGT RAIN  51  44  77 NE7       30.02F
JOHNSTOWN      CLOUDY    47  40  76 E13G23    29.96F
ALTOONA        CLOUDY    52  40  63 E10       30.00F
STATE COLLEGE  CLOUDY    53  42  66 N7        30.03S
WILLIAMSPORT   CLOUDY    54  51  90 CALM      30.04F
SELINSGROVE    CLOUDY    53  46  77 CALM      30.04F
FT INDIANTOWN  CLOUDY    53  38  56 E10       30.04F
CAPITAL CITY   CLOUDY    54  41  61 E7        30.03F
HARRISBURG     CLOUDY    55  39  54 E6        30.03S
YORK           CLOUDY    53  41  63 E6        30.01F
$$

PAZ038>040-043-044-047-048-054-055-060>062-067>071-250600-
EASTERN PENNSYLVANIA

CITY           SKY/WX    TMP DP  RH WIND       PRES   REMARKS
SCRANTON       CLOUDY    57  33  40 NE5       30.05F
MOUNT POCONO   CLOUDY    49  34  56 E13       30.08S
ALLENTOWN      CLOUDY    55  38  52 E12       30.08F
QUAKERTOWN*    CLOUDY    50  41  71 E8        30.08S
READING        CLOUDY    54  38  54 NE7       30.04F
LANCASTER      CLOUDY    53  40  61 E10       30.02F
COATESVILLE    CLOUDY    52  41  66 E15G26    30.04F
POTTSTOWN      LGT RAIN  50  41  71 E6        30.08S
BLUE BELL      CLOUDY    50  41  71 E14       30.07F
DOYLESTOWN     CLOUDY    50  44  80 NE8       30.06F
WILLOW GROVE   NOT AVBL
NORTH PHILA    CLOUDY    53  45  74 E10       30.07F
PHILADELPHIA   CLOUDY    52  46  80 NE13      30.04F
$$




USA.gov is the U.S. government's official web portal to all federal, state and local government web resources and services.